Skip Page Navigation
NASA JPL Caltech
NASA Logo - Jet Propulsion Laboratory + View the NASA Portal
+ Center for Near-Earth Object Studies
JPL Home Earth Solar System Stars & Galaxies Technology
JPL Solar System Dynamics
BODIES ORBITS EPHEMERIDES TOOLS PHYSICAL DATA DISCOVERY FAQ SITE MAP
IMPORTANT: The SSD Announcement email list is now available. Major changes are coming in the near future, including possible hostname and/or URL changes. To be notified of such changes, subscribe to this email list.

Please visit this page for more details.


JPL Small-Body Database Browser
Search: [ help ]  
65253 (2002 FO26)
Classification: Main-belt Asteroid          SPK-ID: 2065253
Ephemeris | Orbit Diagram | Orbital Elements | Mission Design | Physical Parameters | Discovery Circumstances | Close-Approach Data ]

[ show orbit diagram ]
Orbital Elements at Epoch 2459000.5 (2020-May-31.0) TDB
Reference: JPL 21 (heliocentric ecliptic J2000)
 Element Value Uncertainty (1-sigma)   Units 
e .01609519971917296 4.7194e-08  
a 3.122367226814563 2.8973e-08 au
q 3.072112102702382 1.4515e-07 au
i 14.97290142796406 6.0414e-06 deg
node 67.12785175113999 1.8791e-05 deg
peri 41.01841601477665 0.00019068 deg
M 151.5003618949996 0.00018801 deg
tp 2458152.422451512785
(2018-Feb-02.92245151)
0.0010525 TDB
period 2015.228964713612
5.52
2.8049e-05
7.679e-08
d
yr
n .1786397507695411 2.4864e-09 deg/d
Q 3.172622350926743 2.9439e-08 au
  Orbit Determination Parameters
   # obs. used (total)      657  
   data-arc span      14771 days (40.44 yr)  
   first obs. used      1978-11-29  
   last obs. used      2019-05-09  
   planetary ephem.      DE431  
   SB-pert. ephem.      SB431-N16  
   condition code      0  
   norm. resid. RMS      .59248  
   source      ORB  
   producer      Otto Matic  
   solution date      2019-May-30 05:26:07  

Additional Information
 Earth MOID = 2.09593 au 
 Jupiter MOID = 1.91672 au 
 T_jup = 3.163 
[ show covariance matrix ]

Ephemeris | Orbit Diagram | Orbital Elements | Mission Design | Physical Parameters | Discovery Circumstances | Close-Approach Data ]

Physical Parameter Table
Parameter Symbol Value Units Sigma Reference Notes
absolute magnitude H 14.4   n/a MPO263847  
diameter diameter 8.107 km 0.152 urn:nasa:pds:neowise_diameters_albedos::2.0[mainbelt] (http://adsabs.harvard.edu/abs/2011ApJ...741...68M)  
geometric albedo albedo 0.056   0.019 urn:nasa:pds:neowise_diameters_albedos::2.0[mainbelt] (http://adsabs.harvard.edu/abs/2011ApJ...741...68M)  

65253 (2002 FO26)          Discovered 2002-Mar-20 by NEAT at Palomar
Reference: 20030614/Numbers.arcLast Updated: 2004-04-19

[ show close-approach data ]
Alternate Designations
 2002 FO26 = 1978 WU2 = 2000 WB121 
Ephemeris | Orbit Diagram | Orbital Elements | Mission Design | Physical Parameters | Discovery Circumstances | Close-Approach Data ]
ABOUT SSD CREDITS/AWARDS PRIVACY/COPYRIGHT GLOSSARY LINKS
FirstGov 2020-Mar-31 17:25 UT
(server date/time)  
NASA Home Page
Site Manager:   Ryan S. Park
Webmaster  Alan B. Chamberlin